THORAD DELTA 1 DEB, 8564

Orbit data source: Space-Track

THORAD DELTA 1 DEB, 8564 is space debris in SSO originally from a launch on Fri, 15 Nov 1974 UTC launched from the Air Force Western Test Range (AFWTR). Debris objects in space refer to the collection of defunct objects orbiting the Earth. Examples of debris include non-operational satellites, rocket bodies, and fragments generated from explosions, collisions, or faulty payload assembly.

Loading next visibility...
Identifier
8564, 1974-089DB
Orbit
SSO
Country
Flag of USUS
Related business
Manufacturer
Unknown
Mission
Spacecraft
Bus & Motor
Unknown
Mass
Unknown
Launch date (UTC)
1974-11-15 (52 years ago)
Launch vehicle
Unknown
Launch site
Air Force Western Test Range (AFWTR)
Object type
Payload
Rocket body
Debris
Shape & HBR
Unknown shape, 0.1 m
Radar Cross Section
Medium (>0.1 m² and <1 m²)

Expand to show TLE details & history
Last TLE update: 21 hours ago

TLE from 21 hours ago
0 THORAD DELTA 1 DEB
1 08564U 74089DB  26165.52464501  .00000271  00000-0  15908-2 0  9993
2 08564 101.2466  64.6706 0052527  17.6960 156.4044 12.69372740373406
Epoch: 2026-06-14T12:35Z
TLE epoch observation values (Epoch: 2026-06-14T12:35:29.328Z)
Latitude
5.47635°
Longitude
154.06124°
Altitude
1,423.979 km
Speed
7.132 km/s
True Right ascension
16h 23m 01s
True Declination
5° 26' 48"
Sunlit
Object was in full shadow at epoch
Visualization orbit readout
Latitude
Unknown
Longitude
Unknown
Altitude
Unknown
Speed
Unknown
Apparent Right ascension
Unknown
Apparent Declination
Unknown
Sunlit
N/A
Visualization observer readout
Local Sidereal Time
20:30:41
Azimuth
Unknown
Elevation
Unknown
Doppler factor
Unknown
Orbital elements
Apogee altitude
1,422.75 km
Perigee altitude
1,341.227 km
Semi-major axis
7,760.125 km
Eccentricity
0.00525
Inclination
101.2466°
RAAN
64.6706°
Arg. of periapsis
17.696°
True anomaly
156.64389°
Mean anomaly
156.4044°
Eccentric anomaly
156.52429°
Mean motion
3.17497 °/min
Orbital period
113.39 mins
BSTAR
0.0015908
Loading maneuver chart data...
Computing Atmospheric mass density...

Documentation

Showing up to 5 results
|